Location: Newark
(35.5470°N, 95.4930°W)
Time: 22:55:03
(UTC+00:00)

ISS - Visible Passes

Search period start: 19 February 2020 00:00
Search period end: 29 February 2020 00:00
Orbit: 416 x 422 km, 51.6° (Epoch: 20 February)

Date Brightness Start Highest point End Pass type
(mag) Time Alt. Az. Time Alt. Az. Time Alt. Az.
19 Feb -2.5 12:36:54 10° SSW 12:40:07 45° SE 12:43:22 10° ENE visible
20 Feb -1.4 11:49:51 10° S 11:52:37 24° SE 11:55:24 10° ENE visible
21 Feb -0.8 11:03:36 10° SSE 11:05:09 13° SE 11:06:51 10° E visible
22 Feb -3.8 11:51:51 21° SW 11:53:57 88° SE 11:57:20 10° NE visible
23 Feb -2.6 11:06:49 41° ESE 11:06:49 41° ESE 11:09:36 10° ENE visible
24 Feb -0.1 10:21:34 10° ENE 10:21:34 10° ENE 10:21:35 10° ENE visible
24 Feb -2.7 11:54:32 25° WNW 11:55:31 29° NW 11:58:31 10° NNE visible
25 Feb -2.2 11:09:07 29° NNE 11:09:07 29° NNE 11:11:03 10° NE visible
26 Feb -1.6 11:56:32 13° NW 11:57:16 14° NNW 11:59:05 10° N visible
27 Feb -1.3 11:10:52 15° N 11:10:52 15° N 11:11:54 10° NNE visible
